Stündliche Wetter Kyyanytsya

Heute, 8 Mai, Samstag

Zeit Temperatur Niederschläge Wind Luftdruck Luftfeuchtigkeit
00:00 +10°C° 1.3 mm 5 m/S 739 mmHg 74%
01:00 +9°C° 1.3 mm 5 m/S 739 mmHg 80%
02:00 +9°C° 0 mm 5 m/S 738 mmHg 86%
03:00 +9°C° 0.2 mm 6 m/S 738 mmHg 88%
04:00 +9°C° 0.2 mm 6 m/S 737 mmHg 90%
05:00 +9°C° 0.2 mm 6 m/S 737 mmHg 93%
06:00 +9°C° 0.7 mm 6 m/S 736 mmHg 92%
07:00 +10°C° 0.7 mm 7 m/S 736 mmHg 91%
08:00 +10°C° 0 mm 6 m/S 736 mmHg 91%
09:00 +10°C° 2.3 mm 6 m/S 735 mmHg 92%
10:00 +10°C° 2.3 mm 6 m/S 735 mmHg 94%
11:00 +9°C° 2.3 mm 6 m/S 735 mmHg 96%
12:00 +9°C° 1.1 mm 5 m/S 735 mmHg 95%
13:00 +10°C° 1.1 mm 5 m/S 735 mmHg 94%
14:00 +11°C° 1.1 mm 4 m/S 735 mmHg 93%
15:00 +9°C° 0.1 mm 5 m/S 736 mmHg 93%
16:00 +8°C° 0.1 mm 6 m/S 736 mmHg 92%
17:00 +6°C° 0.1 mm 7 m/S 736 mmHg 91%
18:00 +5°C° 0 mm 7 m/S 737 mmHg 93%
19:00 +4°C° 0 mm 7 m/S 738 mmHg 94%
20:00 +2°C° 0 mm 7 m/S 739 mmHg 96%
21:00 +3°C° 0 mm 7 m/S 740 mmHg 93%
22:00 +3°C° 0 mm 7 m/S 740 mmHg 90%
23:00 +3°C° 0 mm 7 m/S 740 mmHg 86%

Morgen, 9 Mai, Sonntag

Zeit Temperatur Niederschläge Wind Luftdruck Luftfeuchtigkeit
00:00 +3°C° 0 mm 7 m/S 741 mmHg 87%
01:00 +2°C° 0 mm 6 m/S 741 mmHg 87%
02:00 +2°C° 0 mm 6 m/S 742 mmHg 87%
03:00 +1°C° 0 mm 5 m/S 742 mmHg 88%
04:00 +1°C° 0 mm 5 m/S 743 mmHg 89%
05:00 0°C° 0 mm 5 m/S 743 mmHg 89%
06:00 +2°C° 0 mm 5 m/S 744 mmHg 81%
07:00 +3°C° 0 mm 6 m/S 744 mmHg 74%
08:00 +5°C° 0 mm 7 m/S 745 mmHg 66%
09:00 +6°C° 0 mm 7 m/S 745 mmHg 61%
10:00 +8°C° 0 mm 7 m/S 746 mmHg 57%
11:00 +9°C° 0 mm 7 m/S 746 mmHg 52%
12:00 +9°C° 0 mm 7 m/S 746 mmHg 51%
13:00 +9°C° 0 mm 7 m/S 747 mmHg 51%
14:00 +10°C° 0 mm 7 m/S 747 mmHg 50%
15:00 +9°C° 0.1 mm 6 m/S 747 mmHg 53%
16:00 +9°C° 0.1 mm 6 m/S 748 mmHg 57%
17:00 +9°C° 0.1 mm 5 m/S 748 mmHg 60%
18:00 +7°C° 0 mm 4 m/S 749 mmHg 65%
19:00 +7°C° 0 mm 3 m/S 749 mmHg 70%
20:00 +4°C° 0 mm 3 m/S 750 mmHg 75%
21:00 +4°C° 0 mm 3 m/S 750 mmHg 76%
22:00 +3°C° 0 mm 3 m/S 750 mmHg 77%
23:00 +3°C° 0 mm 3 m/S 751 mmHg 79%

übermorgen, 10 Mai, Montag

Zeit Temperatur Niederschläge Wind Luftdruck Luftfeuchtigkeit
00:00 +3°C° 0 mm 3 m/S 751 mmHg 79%
01:00 +2°C° 0 mm 3 m/S 751 mmHg 79%
02:00 +2°C° 0 mm 3 m/S 752 mmHg 79%
03:00 +2°C° 0 mm 3 m/S 752 mmHg 79%
04:00 +3°C° 0 mm 2 m/S 752 mmHg 79%
05:00 +3°C° 0 mm 2 m/S 752 mmHg 79%
06:00 +4°C° 0 mm 3 m/S 753 mmHg 72%
07:00 +7°C° 0 mm 3 m/S 753 mmHg 66%
08:00 +8°C° 0 mm 4 m/S 753 mmHg 59%
09:00 +10°C° 0 mm 4 m/S 752 mmHg 55%
10:00 +10°C° 0 mm 5 m/S 752 mmHg 50%
11:00 +12°C° 0 mm 5 m/S 752 mmHg 46%
12:00 +13°C° 0 mm 5 m/S 752 mmHg 46%
13:00 +13°C° 0 mm 6 m/S 752 mmHg 46%
14:00 +13°C° 0 mm 6 m/S 752 mmHg 46%
15:00 +13°C° 0 mm 6 m/S 751 mmHg 51%
16:00 +13°C° 0 mm 6 m/S 751 mmHg 55%
17:00 +12°C° 0 mm 5 m/S 751 mmHg 60%
18:00 +10°C° 0 mm 5 m/S 751 mmHg 65%
19:00 +8°C° 0 mm 4 m/S 751 mmHg 70%
20:00 +7°C° 0 mm 4 m/S 751 mmHg 75%
21:00 +6°C° 0 mm 4 m/S 751 mmHg 75%
22:00 +6°C° 0 mm 5 m/S 750 mmHg 75%
23:00 +6°C° 0 mm 5 m/S 750 mmHg 75%

11 Mai, Dienstag

Zeit Temperatur Niederschläge Wind Luftdruck Luftfeuchtigkeit
00:00 +6°C° 0 mm 5 m/S 750 mmHg 72%
01:00 +6°C° 0 mm 5 m/S 750 mmHg 69%
02:00 +7°C° 0 mm 6 m/S 749 mmHg 67%
03:00 +7°C° 0 mm 6 m/S 749 mmHg 67%
04:00 +7°C° 0 mm 6 m/S 749 mmHg 67%
05:00 +7°C° 0 mm 6 m/S 748 mmHg 67%
06:00 +8°C° 0 mm 6 m/S 748 mmHg 68%
07:00 +9°C° 0 mm 7 m/S 748 mmHg 69%
08:00 +10°C° 0 mm 7 m/S 748 mmHg 70%
09:00 +10°C° 0 mm 7 m/S 748 mmHg 72%
10:00 +11°C° 0 mm 7 m/S 748 mmHg 73%
11:00 +11°C° 0 mm 7 m/S 748 mmHg 75%
12:00 +12°C° 0 mm 7 m/S 748 mmHg 74%
13:00 +12°C° 0 mm 7 m/S 748 mmHg 73%
14:00 +14°C° 0 mm 7 m/S 748 mmHg 72%
15:00 +14°C° 0 mm 6 m/S 748 mmHg 72%
16:00 +13°C° 0 mm 6 m/S 748 mmHg 72%
17:00 +13°C° 0 mm 5 m/S 748 mmHg 73%
18:00 +12°C° 0 mm 5 m/S 748 mmHg 76%
19:00 +10°C° 0 mm 4 m/S 748 mmHg 80%
20:00 +9°C° 0 mm 3 m/S 748 mmHg 84%
21:00 +9°C° 0 mm 3 m/S 748 mmHg 85%
22:00 +8°C° 0 mm 3 m/S 747 mmHg 85%
23:00 +8°C° 0 mm 3 m/S 747 mmHg 86%

12 Mai, Mittwoch

Zeit Temperatur Niederschläge Wind Luftdruck Luftfeuchtigkeit
00:00 +8°C° 0 mm 3 m/S 747 mmHg 86%
01:00 +7°C° 0 mm 4 m/S 747 mmHg 85%
02:00 +7°C° 0 mm 4 m/S 746 mmHg 85%
03:00 +7°C° 0 mm 4 m/S 746 mmHg 84%
04:00 +7°C° 0 mm 4 m/S 746 mmHg 84%
05:00 +7°C° 0 mm 5 m/S 746 mmHg 83%
06:00 +8°C° 0 mm 6 m/S 746 mmHg 81%
07:00 +8°C° 0 mm 6 m/S 745 mmHg 79%
08:00 +9°C° 0 mm 7 m/S 745 mmHg 77%
09:00 +9°C° 0 mm 7 m/S 746 mmHg 78%
10:00 +9°C° 0 mm 7 m/S 746 mmHg 78%
11:00 +9°C° 0 mm 7 m/S 746 mmHg 78%
12:00 +9°C° 0.1 mm 7 m/S 746 mmHg 78%
13:00 +10°C° 0.1 mm 7 m/S 746 mmHg 77%
14:00 +10°C° 0.1 mm 7 m/S 746 mmHg 77%
15:00 +10°C° 0.1 mm 6 m/S 746 mmHg 79%
16:00 +9°C° 0.1 mm 5 m/S 745 mmHg 81%
17:00 +10°C° 0.1 mm 4 m/S 745 mmHg 84%
18:00 +10°C° 0.4 mm 4 m/S 745 mmHg 88%
19:00 +8°C° 0.4 mm 4 m/S 744 mmHg 92%
20:00 +9°C° 0.4 mm 3 m/S 744 mmHg 96%
21:00 +9°C° 0.9 mm 3 m/S 744 mmHg 96%
22:00 +9°C° 0.9 mm 3 m/S 744 mmHg 96%
23:00 +9°C° 0.9 mm 3 m/S 743 mmHg 97%

13 Mai, Donnerstag

Zeit Temperatur Niederschläge Wind Luftdruck Luftfeuchtigkeit
00:00 +9°C° 1 mm 3 m/S 743 mmHg 97%
01:00 +9°C° 1 mm 3 m/S 743 mmHg 97%
02:00 +9°C° 1 mm 3 m/S 743 mmHg 97%
03:00 +9°C° 0 mm 3 m/S 743 mmHg 97%
04:00 +9°C° 0 mm 3 m/S 743 mmHg 97%
05:00 +9°C° 0 mm 3 m/S 743 mmHg 97%
06:00 +10°C° 0 mm 4 m/S 743 mmHg 91%
07:00 +12°C° 0 mm 4 m/S 743 mmHg 85%
08:00 +13°C° 0 mm 5 m/S 743 mmHg 79%
09:00 +14°C° 0 mm 5 m/S 743 mmHg 74%
10:00 +15°C° 0 mm 5 m/S 743 mmHg 69%
11:00 +17°C° 0 mm 5 m/S 743 mmHg 64%
12:00 +17°C° 0.1 mm 5 m/S 743 mmHg 65%
13:00 +17°C° 0.1 mm 5 m/S 743 mmHg 67%
14:00 +19°C° 0.1 mm 5 m/S 742 mmHg 68%
15:00 +19°C° 0.2 mm 5 m/S 742 mmHg 70%
16:00 +19°C° 0.2 mm 5 m/S 742 mmHg 72%
17:00 +17°C° 0.2 mm 5 m/S 742 mmHg 73%
18:00 +17°C° 0.3 mm 5 m/S 742 mmHg 77%
19:00 +16°C° 0.3 mm 5 m/S 742 mmHg 80%
20:00 +15°C° 0.3 mm 5 m/S 741 mmHg 83%
21:00 +14°C° 0.2 mm 5 m/S 741 mmHg 85%
22:00 +14°C° 0.2 mm 5 m/S 741 mmHg 87%
23:00 +14°C° 0.2 mm 5 m/S 741 mmHg 88%
Mehr zeigen

Wir brauchen deine Erlaubnis

Meteoprog und unser Service Anbieter werden persönliche Daten aufbewahren, so wie Cookies, Geräte Bezeichnung oder ähnliche Technologien von deinem Gerät und Prozess, so wie Persönliche Daten Inhalte und Werbungen, genauso wie social Media und den Verkehr zu analysieren.

  • Aufbewahrung und/oder Zugang zu deiner Geräte Informationen.

    Cookies, Geräte Bezeichnung oder andere Informationen, können aufbewahrt oder Zugang zu deinem Gerät erhalten, für den Grund, der oben angegeben wird.

  • Personalisierte Werbung und Inhalte, Messungen, Einblick in das Publikum und Produkt Entwicklung.

    Werbungen und Inhalte können personalisiert werden, basierend auf ein Profil. Mehr Daten können besser personalisierte Werbungen und Inhalte hinzufügen. Werbung und Inhalte können gezeigt und gemessen werden. Einblicke über das Publikum, welche die Werbung gesehen haben und den Inhalt, können abgeleitet werden. So wie Daten können genutzt werden, um es zu verbessern oder die Benutzer Erfahrung zu verbessern das System und die Software.

Wenn du “Ich stimme zu” klickst, erlaubst du uns, die Cookies zu benutzen die Geräte Bezeichnung, den Web oder ähnliche Technologien zu benutzen. Deine Settings, können in deinem Gerät bei deinem Browser geändert werden.

Für den bestimmten Zweck, berechtigten Interessen beruhen darauf, mehr als auf den Inhalt. Du kannst mehr darüber in unseren Privaten und Cookie Politik lesen.